Weather History for KTYR - November, 2013

Change the Weather History Date:

Thursday, November 21, 2013

  Actual Average Record
Temperature  
Mean Temperature 68 °F 54 °F  
Max Temperature 74 °F 63 °F 81 °F (1956)
Min Temperature 61 °F 44 °F 19 °F (1901)
Degree Days  
Heating Degree Days 0 12  
Month to date heating degree days 161 176  
Since 1 July heating degree days 203 253  
Cooling Degree Days 3 0  
Month to date cooling degree days 17 14  
Year to date cooling degree days 2767 2407  
Growing Degree Days 17 (Base 50)    
Moisture  
Dew Point 62 °F    
Average Humidity 76    
Maximum Humidity 100    
Minimum Humidity 52    
Precipitation  
Precipitation 0.02 in 0.12 in 0.82 in (1977)
Month to date precipitation 1.29 2.98  
Year to date precipitation 35.53 40.43  
Snow  
Snow 0.00 in - - ()
Month to date snowfall 0.0  
Since 1 July snowfall 0.0  
Since 1 September snowfall 0.0  
Snow Depth 0.00 in    
Sea Level Pressure  
Sea Level Pressure 30.04 in    
Wind  
Wind Speed 10 mph (SSE)    
Max Wind Speed 17 mph    
Max Gust Speed 22 mph    
Visibility 10 miles    
Events Rain    
T = Trace of Precipitation, MM = Missing Value Source: NWS Daily Summary

Daily Weather History Graph

Daily Weather History Graph

Search for Another Location

Airport or City:

Trip Planner

Search our weather history database for the weather conditions in past years. The results will help you decide how hot, cold, wet, or windy it might be!

Date:

Astronomy

Nov. 21, 2013 Rise Set
Actual Time 6:56 AM CST 5:18 PM CST
Civil Twilight 6:30 AM CST 5:44 PM CST
Nautical Twilight 6:00 AM CST 6:14 PM CST
Astronomical Twilight 5:30 AM CST 6:43 PM CST
Moon 8:54 PM CST (11/21) 10:04 AM CST (11/21)
Length of Visible Light 11h 14m
Length of Day
10h 21m
Waning Gibbous, 85% of the Moon is Illuminated
Nov 21
Waning Gibbous
Nov 25
Last Quarter
Dec 2
New
Dec 9
First Quarter
Dec 17
Full

Hourly Weather History & Observations

Time (CST) Temp. Dew Point Humidity Pressure Visibility Wind Dir Wind Speed Gust Speed Precip Events Conditions
12:53 AM 62.1 °F 45.0 °F 53% 30.00 in 10.0 mi SSE 12.7 mph - N/A   Overcast
1:30 AM 62.6 °F 46.4 °F 55% 30.02 in 10.0 mi SSE 17.3 mph 21.9 mph N/A   Overcast
1:53 AM 63.0 °F 46.9 °F 56% 30.00 in 10.0 mi SSE 16.1 mph - N/A   Overcast
2:53 AM 63.0 °F 48.0 °F 58% 30.00 in 10.0 mi SSE 10.4 mph - N/A   Overcast
3:53 AM 62.1 °F 52.0 °F 70% 29.99 in 10.0 mi SSE 10.4 mph - 0.00 in   Overcast
4:39 AM 62.6 °F 53.6 °F 72% 30.01 in 10.0 mi SSE 10.4 mph - 0.00 in   Overcast
4:53 AM 62.1 °F 55.0 °F 78% 30.00 in 10.0 mi SSE 12.7 mph - 0.00 in   Overcast
5:53 AM 61.0 °F 55.9 °F 83% 30.01 in 10.0 mi SSE 8.1 mph - 0.00 in   Overcast
6:53 AM 62.1 °F 57.0 °F 84% 30.02 in 10.0 mi SSE 9.2 mph - N/A   Overcast
7:19 AM 62.6 °F 57.2 °F 82% 30.04 in 10.0 mi SSE 6.9 mph - N/A   Overcast
7:53 AM 62.1 °F 59.0 °F 90% 30.04 in 10.0 mi SE 9.2 mph - N/A   Overcast
8:53 AM 64.0 °F 61.0 °F 90% 30.05 in 8.0 mi SSE 5.8 mph - N/A   Overcast
9:53 AM 64.9 °F 63.0 °F 93% 30.07 in 6.0 mi SSE 6.9 mph - N/A   Overcast
10:53 AM 69.1 °F 64.9 °F 87% 30.06 in 10.0 mi South 8.1 mph - N/A   Overcast
11:53 AM 71.1 °F 66.0 °F 84% 30.05 in 10.0 mi South 10.4 mph - N/A   Overcast
12:11 PM 71.6 °F 66.2 °F 83% 30.06 in 10.0 mi SSW 11.5 mph - N/A   Overcast
12:53 PM 72.0 °F 66.0 °F 81% 30.03 in 10.0 mi South 11.5 mph - N/A   Overcast
1:53 PM 73.0 °F 66.9 °F 81% 30.01 in 10.0 mi SSE 6.9 mph - N/A   Overcast
2:23 PM 73.4 °F 66.2 °F 78% 30.02 in 10.0 mi South 9.2 mph - N/A   Overcast
2:53 PM 73.9 °F 68.0 °F 82% 30.00 in 10.0 mi South 10.4 mph - N/A   Overcast
3:53 PM 73.9 °F 68.0 °F 82% 30.02 in 10.0 mi South 8.1 mph - N/A   Overcast
4:24 PM 73.4 °F 68.0 °F 83% 30.03 in 10.0 mi SSE 6.9 mph - 0.00 in Rain Light Rain
4:53 PM 73.0 °F 68.0 °F 84% 30.03 in 10.0 mi SSE 5.8 mph - 0.00 in   Mostly Cloudy
5:32 PM 71.6 °F 68.0 °F 88% 30.04 in 10.0 mi SSE 8.1 mph - N/A   Mostly Cloudy
5:53 PM 71.1 °F 68.0 °F 90% 30.04 in 10.0 mi SE 8.1 mph - N/A   Mostly Cloudy
6:53 PM 71.1 °F 68.0 °F 90% 30.05 in 10.0 mi SE 12.7 mph - N/A   Mostly Cloudy
7:53 PM 71.1 °F 66.9 °F 87% 30.06 in 10.0 mi SSE 11.5 mph - N/A   Mostly Cloudy
8:48 PM 69.8 °F 68.0 °F 94% 30.07 in 10.0 mi SSE 10.4 mph - 0.01 in   Mostly Cloudy
8:53 PM 69.1 °F 68.0 °F 96% 30.06 in 10.0 mi SSE 11.5 mph - 0.01 in   Mostly Cloudy
9:15 PM 69.8 °F 68.0 °F 94% 30.08 in 10.0 mi SSE 10.4 mph - N/A   Overcast
9:39 PM 69.8 °F 68.0 °F 94% 30.08 in 10.0 mi SSE 12.7 mph - N/A   Overcast
9:53 PM 70.0 °F 68.0 °F 93% 30.07 in 10.0 mi SSE 10.4 mph - N/A   Overcast
10:07 PM 69.8 °F 68.0 °F 94% 30.08 in 10.0 mi SSE 9.2 mph - N/A   Overcast
10:53 PM 70.0 °F 69.1 °F 97% 30.06 in 10.0 mi SSE 8.1 mph - N/A   Overcast
11:53 PM 71.1 °F 69.1 °F 93% 30.07 in 10.0 mi South 9.2 mph - 0.00 in Rain Light Rain